PulseSat

PulseSat

GPS BIIR-13

Last updated on Dec. 10, 2018, 12:08 a.m. UTC

1 28474U 04045A   18343.35383955 -.00000061  00000-0  00000+0 0  9995
2 28474  54.5855  75.5333 0187791 256.6999 114.5865  2.00571124103336
UTC
Height (km)
Latitude
Longitude
Inclination
Orbital Period

Next 30 passes for location: Hong Kong

Rise time Rise Azimuth (degrees) Set time Set Azimuth (degrees) Duration Max altitude (degrees)

No matching passes for this satellites

PulseSat

PulseSat is the new satellites software and hardware trackering solution by Pulsely.
Satellite Two Line Element Set source: US Air Force Space Command

Download PulseSat for iOS
© 2017 Pulsely Limited